Voltar ao catálogo

SL-14 R/B

AtivoPO
NORAD 19852·ROCKET BODY·🇷🇺 Russia

Lançado Feb 28, 1989 de Plesetsk Cosmodrome

Loading…

Próximas Passagens (próximas 24 horas)

TLE

AtualizadoSource: Space-Track

Época: Sep 14, 2026, 13:16 UTC

1 19852U 89018B   26257.55329929  .00000034  00000-0  17319-4 0  9999
2 19852  82.5200 122.1158 0016516 318.5960  41.3947 13.84174243896407

Acompanhe SL-14 R/B em tempo real com AllMySat

Download on the App Store